timestamp,wind_dir_avg,wind_spd_avg,wind_spd_max_dir,wind_spd_gust,battery_voltage,lat,long
2021-06-20 00:04:01+00:00,217.0,5.55,221.0,6.33,13.29,47.59359,-54.27349
2021-06-20 00:14:01+00:00,193.0,4.03,207.0,4.43,12.73,47.59359,-54.27349
2021-06-20 00:24:01+00:00,199.0,4.62,207.0,5.13,12.73,47.59359,-54.27349
2021-06-20 00:34:01+00:00,185.0,4.82,192.0,5.17,12.73,47.59359,-54.27349
2021-06-20 00:44:01+00:00,185.0,5.34,187.0,5.59,12.73,47.59359,-54.27349
2021-06-20 00:54:01+00:00,181.0,5.51,179.0,7.22,12.73,47.59359,-54.27349
2021-06-20 01:04:01+00:00,185.0,5.45,204.0,6.08,12.73,47.59359,-54.27349
2021-06-20 01:14:01+00:00,188.0,5.36,206.0,5.86,12.65,47.59359,-54.27349
2021-06-20 01:24:01+00:00,180.0,5.7,174.0,6.18,12.65,47.59359,-54.27349
2021-06-20 01:34:01+00:00,184.0,6.11,186.0,6.9,12.65,47.59359,-54.27349
2021-06-20 01:44:01+00:00,185.0,5.09,191.0,5.56,12.65,47.59359,-54.27349
2021-06-20 01:54:01+00:00,183.0,5.13,180.0,5.71,12.65,47.59359,-54.27349
2021-06-20 02:04:01+00:00,181.0,5.07,177.0,5.7,12.65,47.59359,-54.27349
2021-06-20 02:14:00+00:00,189.0,5.32,201.0,6.34,12.57,47.59359,-54.27349
2021-06-20 02:24:00+00:00,191.0,4.08,193.0,4.91,12.57,47.59359,-54.27349
2021-06-20 02:34:00+00:00,216.0,5.24,218.0,6.02,12.57,47.59359,-54.27349
2021-06-20 02:44:00+00:00,214.0,5.94,211.0,6.72,12.57,47.59359,-54.27349
2021-06-20 02:54:00+00:00,213.0,6.49,206.0,7.79,12.57,47.59359,-54.27349
2021-06-20 03:04:00+00:00,206.0,5.72,207.0,6.46,12.57,47.59359,-54.27349
2021-06-20 03:14:00+00:00,191.0,4.95,188.0,5.6,12.57,47.59359,-54.27349
2021-06-20 03:24:00+00:00,201.0,4.72,212.0,5.94,12.57,47.59359,-54.27349
2021-06-20 03:34:00+00:00,210.0,5.48,207.0,6.49,12.57,47.59359,-54.27349
2021-06-20 03:44:00+00:00,216.0,7.15,216.0,7.96,12.57,47.59359,-54.27349
2021-06-20 03:54:00+00:00,213.0,6.26,210.0,6.82,12.57,47.59359,-54.27349
2021-06-20 04:04:00+00:00,202.0,6.22,203.0,6.97,12.57,47.59359,-54.27349
2021-06-20 04:14:01+00:00,212.0,6.88,213.0,7.81,12.57,47.59359,-54.27349
2021-06-20 04:24:01+00:00,211.0,7.49,206.0,8.28,12.57,47.59359,-54.27349
2021-06-20 04:34:01+00:00,209.0,6.86,212.0,7.82,12.57,47.59359,-54.27349
2021-06-20 04:44:01+00:00,214.0,7.2,209.0,8.29,12.57,47.59359,-54.27349
2021-06-20 04:54:01+00:00,214.0,5.92,209.0,6.86,12.57,47.59359,-54.27349
2021-06-20 05:04:01+00:00,215.0,6.77,215.0,7.36,12.57,47.59359,-54.27349
2021-06-20 05:14:00+00:00,217.0,5.31,216.0,6.15,12.57,47.59359,-54.27349
2021-06-20 05:24:00+00:00,217.0,4.41,217.0,5.21,12.57,47.59359,-54.27349
2021-06-20 05:34:00+00:00,196.0,4.86,205.0,6.01,12.57,47.59359,-54.27349
2021-06-20 05:44:00+00:00,203.0,4.9,207.0,6.38,12.57,47.59359,-54.27349
2021-06-20 05:54:00+00:00,215.0,5.66,218.0,6.81,12.57,47.59359,-54.27349
2021-06-20 06:04:00+00:00,225.0,4.8,220.0,5.81,12.57,47.59359,-54.27349
2021-06-20 06:14:01+00:00,221.0,6.09,216.0,6.96,12.49,47.59359,-54.27349
2021-06-20 06:24:01+00:00,227.0,5.36,229.0,6.03,12.49,47.59359,-54.27349
2021-06-20 06:34:01+00:00,222.0,6.16,221.0,7.3,12.49,47.59359,-54.27349
2021-06-20 06:44:01+00:00,227.0,7.0,227.0,7.86,12.49,47.59359,-54.27349
2021-06-20 06:54:01+00:00,233.0,5.68,227.0,6.84,12.49,47.59359,-54.27349
2021-06-20 07:04:01+00:00,231.0,6.18,229.0,7.07,12.49,47.59359,-54.27349
2021-06-20 07:14:00+00:00,216.0,5.63,219.0,6.41,12.41,47.59359,-54.27349
2021-06-20 07:24:00+00:00,230.0,6.1,230.0,7.0,12.41,47.59359,-54.27349
2021-06-20 07:34:00+00:00,226.0,6.97,227.0,8.11,12.41,47.59359,-54.27349
2021-06-20 07:44:00+00:00,226.0,5.82,219.0,6.75,12.41,47.59359,-54.27349
2021-06-20 07:54:00+00:00,227.0,5.16,219.0,5.99,12.41,47.59359,-54.27349
2021-06-20 08:04:00+00:00,214.0,5.58,215.0,6.51,12.41,47.59359,-54.27349
2021-06-20 08:14:01+00:00,216.0,6.12,217.0,7.46,12.41,47.59359,-54.27349
2021-06-20 08:24:01+00:00,214.0,7.58,205.0,9.76,12.41,47.59359,-54.27349
2021-06-20 08:34:01+00:00,218.0,6.77,220.0,7.46,12.41,47.59359,-54.27349
2021-06-20 08:44:01+00:00,217.0,5.93,216.0,6.91,12.41,47.59359,-54.27349
2021-06-20 08:54:01+00:00,214.0,5.5,216.0,6.46,12.41,47.59359,-54.27349
2021-06-20 09:04:01+00:00,212.0,6.16,209.0,6.96,12.41,47.59359,-54.27349
2021-06-20 09:14:01+00:00,205.0,5.88,213.0,6.92,12.41,47.59359,-54.27349
2021-06-20 09:24:01+00:00,215.0,5.6,216.0,6.27,12.41,47.59359,-54.27349
2021-06-20 09:34:01+00:00,212.0,4.72,209.0,5.32,12.41,47.59359,-54.27349
2021-06-20 09:44:01+00:00,226.0,4.47,226.0,5.27,12.41,47.59359,-54.27349
2021-06-20 09:54:01+00:00,226.0,5.25,228.0,5.95,12.41,47.59359,-54.27349
2021-06-20 10:04:01+00:00,244.0,4.33,243.0,4.81,12.41,47.59359,-54.27349
2021-06-20 10:14:00+00:00,228.0,4.53,230.0,5.33,12.81,47.59359,-54.27349
2021-06-20 10:24:00+00:00,242.0,4.15,239.0,4.56,12.81,47.59359,-54.27349
2021-06-20 10:34:00+00:00,229.0,5.25,223.0,6.0,12.81,47.59359,-54.27349
2021-06-20 10:44:00+00:00,229.0,6.16,229.0,7.25,12.81,47.59359,-54.27349
2021-06-20 10:54:00+00:00,225.0,7.17,223.0,7.79,12.81,47.59359,-54.27349
2021-06-20 11:04:00+00:00,198.0,6.02,206.0,6.48,12.81,47.59359,-54.27349
2021-06-20 11:14:01+00:00,215.0,6.22,216.0,6.89,13.68,47.59359,-54.27349
2021-06-20 11:24:01+00:00,230.0,5.84,226.0,6.65,13.68,47.59359,-54.27349
2021-06-20 11:34:01+00:00,228.0,5.36,222.0,6.09,13.68,47.59359,-54.27349
2021-06-20 11:44:01+00:00,236.0,5.1,233.0,5.51,13.68,47.59359,-54.27349
2021-06-20 11:54:01+00:00,226.0,5.57,225.0,6.25,13.68,47.59359,-54.27349
2021-06-20 12:04:01+00:00,220.0,7.02,219.0,7.97,13.68,47.59359,-54.27349
2021-06-20 12:14:01+00:00,223.0,6.01,223.0,6.82,13.6,47.59359,-54.27349
2021-06-20 12:24:01+00:00,223.0,5.59,219.0,6.25,13.6,47.59359,-54.27349
2021-06-20 12:34:01+00:00,224.0,4.79,234.0,5.44,13.6,47.59359,-54.27349
2021-06-20 12:44:01+00:00,226.0,4.92,228.0,5.42,13.6,47.59359,-54.27349
2021-06-20 12:54:01+00:00,223.0,4.67,223.0,5.19,13.6,47.59359,-54.27349
2021-06-20 13:04:01+00:00,220.0,5.76,212.0,7.03,13.6,47.59359,-54.27349
2021-06-20 13:14:01+00:00,229.0,5.35,228.0,5.82,13.76,47.59359,-54.27349
2021-06-20 13:24:01+00:00,236.0,5.34,227.0,6.26,13.76,47.59359,-54.27349
2021-06-20 13:34:01+00:00,238.0,4.71,238.0,5.11,13.76,47.59359,-54.27349
2021-06-20 13:44:01+00:00,216.0,5.18,218.0,5.62,13.76,47.59359,-54.27349
2021-06-20 13:54:01+00:00,248.0,4.3,249.0,4.52,13.76,47.59359,-54.27349
2021-06-20 14:04:01+00:00,233.0,4.34,235.0,4.77,13.76,47.59359,-54.27349
2021-06-20 14:14:01+00:00,247.0,5.7,249.0,6.52,13.84,47.59359,-54.27349
2021-06-20 14:24:01+00:00,226.0,4.01,236.0,5.32,13.84,47.59359,-54.27349
2021-06-20 14:34:01+00:00,148.0,1.29,125.0,2.3,13.84,47.59359,-54.27349
2021-06-20 14:44:01+00:00,237.0,1.69,243.0,2.73,13.84,47.59359,-54.27349
2021-06-20 14:54:01+00:00,273.0,2.28,273.0,2.57,13.84,47.59359,-54.27349
2021-06-20 15:04:01+00:00,289.0,2.43,294.0,2.82,13.84,47.59359,-54.27349
2021-06-20 15:14:00+00:00,275.0,2.78,269.0,3.02,13.76,47.59359,-54.27349
2021-06-20 15:24:00+00:00,262.0,3.63,259.0,3.92,13.76,47.59359,-54.27349
2021-06-20 15:34:00+00:00,245.0,3.88,244.0,4.42,13.76,47.59359,-54.27349
2021-06-20 15:44:00+00:00,239.0,3.58,240.0,3.89,13.76,47.59359,-54.27349
2021-06-20 15:54:00+00:00,203.0,2.53,190.0,3.2,13.76,47.59359,-54.27349
2021-06-20 16:04:00+00:00,176.0,3.72,186.0,5.92,13.76,47.59359,-54.27349
2021-06-20 16:14:01+00:00,172.0,5.12,175.0,6.09,13.53,47.59359,-54.27349
2021-06-20 16:24:01+00:00,179.0,8.91,182.0,10.6,13.53,47.59359,-54.27349
2021-06-20 16:34:01+00:00,171.0,6.28,172.0,7.12,13.53,47.59359,-54.27349
2021-06-20 16:44:01+00:00,174.0,7.13,176.0,7.38,13.53,47.59359,-54.27349
2021-06-20 16:54:01+00:00,171.0,7.31,172.0,7.62,13.53,47.59359,-54.27349
2021-06-20 17:04:01+00:00,177.0,6.02,179.0,6.55,13.53,47.59359,-54.27349
2021-06-20 17:14:01+00:00,188.0,6.93,190.0,7.32,13.68,47.59359,-54.27349
2021-06-20 17:24:01+00:00,195.0,6.38,194.0,7.02,13.68,47.59359,-54.27349
2021-06-20 17:34:01+00:00,183.0,8.32,188.0,9.78,13.68,47.59359,-54.27349
2021-06-20 17:44:01+00:00,191.0,9.57,191.0,11.43,13.68,47.59359,-54.27349
2021-06-20 17:54:01+00:00,201.0,8.84,197.0,10.93,13.68,47.59359,-54.27349
2021-06-20 18:04:01+00:00,212.0,6.28,213.0,6.89,13.68,47.59359,-54.27349
2021-06-20 18:14:01+00:00,212.0,6.54,206.0,7.57,13.37,47.59359,-54.27349
2021-06-20 18:24:01+00:00,203.0,7.45,204.0,8.17,13.37,47.59359,-54.27349
2021-06-20 18:34:01+00:00,206.0,7.73,205.0,8.64,13.37,47.59359,-54.27349
2021-06-20 18:44:01+00:00,210.0,7.38,211.0,8.33,13.37,47.59359,-54.27349
2021-06-20 18:54:01+00:00,213.0,6.52,212.0,7.68,13.37,47.59359,-54.27349
2021-06-20 19:04:01+00:00,216.0,7.35,212.0,8.55,13.37,47.59359,-54.27349
2021-06-20 19:14:01+00:00,214.0,7.72,207.0,8.71,13.44,47.59359,-54.27349
2021-06-20 19:24:01+00:00,212.0,8.34,210.0,9.63,13.44,47.59359,-54.27349
2021-06-20 19:34:01+00:00,211.0,8.23,212.0,10.13,13.44,47.59359,-54.27349
2021-06-20 19:44:01+00:00,211.0,8.74,215.0,10.06,13.44,47.59359,-54.27349
2021-06-20 19:54:01+00:00,213.0,8.11,208.0,9.22,13.44,47.59359,-54.27349
2021-06-20 20:04:01+00:00,211.0,8.12,210.0,9.38,13.44,47.59359,-54.27349
2021-06-20 20:14:01+00:00,209.0,7.47,207.0,8.19,13.68,47.59359,-54.27349
2021-06-20 20:24:01+00:00,208.0,7.57,209.0,8.36,13.68,47.59359,-54.27349
2021-06-20 20:34:01+00:00,208.0,7.48,208.0,8.15,13.68,47.59359,-54.27349
2021-06-20 20:44:01+00:00,206.0,8.23,204.0,9.01,13.68,47.59359,-54.27349
2021-06-20 20:54:01+00:00,215.0,7.36,214.0,7.99,13.68,47.59359,-54.27349
2021-06-20 21:04:01+00:00,216.0,7.33,216.0,8.29,13.68,47.59359,-54.27349
2021-06-20 21:14:01+00:00,211.0,5.8,210.0,6.51,13.6,47.59359,-54.27349
2021-06-20 21:24:01+00:00,210.0,5.03,207.0,5.85,13.6,47.59359,-54.27349
2021-06-20 21:34:01+00:00,215.0,5.54,217.0,6.73,13.6,47.59359,-54.27349
2021-06-20 21:44:01+00:00,213.0,4.4,212.0,5.12,13.6,47.59359,-54.27349
2021-06-20 21:54:01+00:00,199.0,5.14,200.0,6.1,13.6,47.59359,-54.27349
2021-06-20 22:04:01+00:00,201.0,6.8,202.0,7.39,13.6,47.59359,-54.27349
2021-06-20 22:14:01+00:00,207.0,5.92,216.0,6.76,13.21,47.59359,-54.27349
2021-06-20 22:24:01+00:00,215.0,6.13,216.0,6.72,13.21,47.59359,-54.27349
2021-06-20 22:34:01+00:00,220.0,7.86,220.0,8.47,13.21,47.59359,-54.27349
2021-06-20 22:44:01+00:00,221.0,7.34,219.0,7.9,13.21,47.59359,-54.27349
2021-06-20 22:54:01+00:00,231.0,8.08,232.0,10.08,13.21,47.59359,-54.27349
2021-06-20 23:04:01+00:00,234.0,7.78,240.0,9.14,13.21,47.59359,-54.27349
2021-06-20 23:14:01+00:00,226.0,7.91,231.0,8.86,12.97,47.59359,-54.27349
2021-06-20 23:24:01+00:00,227.0,6.87,230.0,7.92,12.97,47.59359,-54.27349
2021-06-20 23:34:01+00:00,231.0,5.81,219.0,6.7,12.97,47.59359,-54.27349
2021-06-20 23:44:01+00:00,248.0,2.96,234.0,3.6,12.97,47.59359,-54.27349
2021-06-20 23:54:01+00:00,245.0,3.7,243.0,4.41,12.97,47.59359,-54.27349
